Simultaneous Nadir Overpasses (SNOs) Predictions

Prediction of SNOs between AQUA and METOP-A Satellite Orbit:

Table of predicted SNOs for the next 14.0 days since TLE Epoch: 12/27/2014
Index Date (AQUA) Time (AQUA) Lat,Lon (AQUA) SZA (AQUA ) Date (METOP-A) Time (METOP-A) Lat,Lon (METOP-A) SZA (METOP-A ) Distance(km) Time Diff (sec)
1 12/27/2014 18:49:03 73.76,-107.87 97.05 12/27/2014 18:47:51 73.74,-107.83 97.04 2.55 72
2 12/27/2014 19:38:30 -73.84, 59.60 82.88 12/27/2014 19:38:31 -73.83, 59.71 82.88 3.33 1
3 12/27/2014 20:27:58 73.86,-132.82 97.15 12/27/2014 20:29:10 73.87,-132.87 97.15 1.84 72
4 12/30/2014 14:23:17 73.76, -41.42 96.90 12/30/2014 14:22:11 73.75, -41.40 96.90 1.60 66
5 12/30/2014 15:12:44 -73.83, 126.06 83.03 12/30/2014 15:12:51 -73.84, 126.14 83.03 2.52 7
6 12/30/2014 16:02:15 74.02, -66.72 97.17 12/30/2014 16:03:27 74.02, -66.08 97.15 19.53 72
7 01/02/2015 09:57:30 73.77, 25.01 96.70 01/02/2015 09:56:31 73.74, 25.01 96.68 3.12 59
8 01/02/2015 10:46:57 -73.84,-167.51 83.23 01/02/2015 10:47:11 -73.83,-167.45 83.24 1.83 14
9 01/02/2015 11:36:33 74.29, -0.89 97.25 01/02/2015 11:37:41 74.31, 1.06 97.21 58.95 68
10 01/05/2015 05:31:41 73.79, 91.42 96.45 01/05/2015 05:30:49 73.78, 91.51 96.44 3.25 52
11 01/05/2015 06:21:07 -73.81,-100.98 83.54 01/05/2015 06:21:30 -73.82,-101.07 83.53 3.17 23
12 01/08/2015 01:05:51 73.77, 157.92 96.10 01/08/2015 01:05:09 73.75, 157.86 96.09 2.95 42
13 01/08/2015 01:55:18 -73.84, -34.58 83.84 01/08/2015 01:55:49 -73.84, -34.59 83.84 0.63 31




NCC Satellite Simultaneous Nadir Overpasses (SNOs) Prediction Service
